User: anonymous   Login
Location: Passau
(48.5830°N, 13.4830°E)
Time: 17:24:01
(UTC+01:00)
Language:

AO-91 - Orbit

View from above orbital plane
View from above orbital plane
View from above satellite
View from above satellite

Ground track
Ground track

The orbit data is extracted from the following two-line orbital elements,

1 43017U 17073E   21336.98053020  .00001205  00000-0  96215-4 0  9990
2 43017  97.6924 234.1702 0254826 110.1613 252.7206 14.79983189218041
Epoch (UTC): 02 December 2021 23:31:57
Eccentricity: 0.0254826
inclination: 97.6924°
perigee height: 451 km
apogee height: 808 km
right ascension of ascending node: 234.1702°
argument of perigee: 110.1613°
revolutions per day: 14.79983189
mean anomaly at epoch: 252.7206°
orbit number at epoch: 21804

The dashed part of the orbit path shows where the satellite is in the earth's shadow,  

DLR